VIR155M EGLL-KLAS

Flight info

Callsign VIR155M
Flight time N/A
Altitude 36000
Route CPT L9 DIDZA N14 OKTAD DCT MEDOG DCT VATRY DCT PIKIL/M086F380 DCT 5630N02000W 5730N03000W 5830N04000W 5930N05000W DCT URTAK/N0506F380 DCT MCKEE DCT PIGLA/N0502F400DCT 50N098W DCT MOT DCT SWTHN DCT BOY DCT MLF DCT STEWW CHOWW3
Aircraft B789/H-SDE1E2E3FGHIJ2J3J4J5M1RWXY/LB1D1

Departure

Time 2026-05-06 08:15
Airport London Heathrow Airport (EGLL)

Arrival

Time N/A
Airport Harry Reid International Airport (KLAS)
Time Latitude Longitude Altitude Speed Heading
2026-05-06 07:48 51.46851 -0.46345 93 ft 0 kts 56°
2026-05-06 08:03 51.46850 -0.46348 93 ft 2 kts 56°
2026-05-06 08:03 51.46840 -0.46369 93 ft 2 kts 56°
2026-05-06 08:03 51.46831 -0.46391 93 ft 2 kts 55°
2026-05-06 08:04 51.46822 -0.46413 90 ft 2 kts 55°
2026-05-06 08:04 51.46812 -0.46434 92 ft 2 kts 55°
2026-05-06 08:04 51.46806 -0.46450 91 ft 2 kts 16°
2026-05-06 08:04 51.46791 -0.46443 92 ft 2 kts 327°
2026-05-06 08:05 51.46778 -0.46429 90 ft 2 kts 326°
2026-05-06 08:05 51.46770 -0.46420 92 ft 0 kts 326°
2026-05-06 08:06 51.46773 -0.46423 92 ft 1 kts 326°
2026-05-06 08:07 51.46783 -0.46434 90 ft 3 kts 326°
2026-05-06 08:07 51.46809 -0.46462 91 ft 6 kts 326°
2026-05-06 08:07 51.46837 -0.46508 95 ft 6 kts 298°
2026-05-06 08:07 51.46843 -0.46585 94 ft 9 kts 270°
2026-05-06 08:08 51.46843 -0.46702 91 ft 12 kts 270°
2026-05-06 08:08 51.46833 -0.46829 95 ft 10 kts 234°
2026-05-06 08:08 51.46771 -0.46858 93 ft 9 kts 184°
2026-05-06 08:08 51.46705 -0.46859 92 ft 10 kts 185°
2026-05-06 08:09 51.46661 -0.46947 95 ft 12 kts 257°
2026-05-06 08:09 51.46656 -0.47104 95 ft 16 kts 270°
2026-05-06 08:09 51.46656 -0.47304 94 ft 18 kts 269°
2026-05-06 08:09 51.46655 -0.47509 94 ft 18 kts 269°
2026-05-06 08:10 51.46655 -0.47710 94 ft 18 kts 270°
2026-05-06 08:10 51.46654 -0.47908 94 ft 18 kts 270°
2026-05-06 08:10 51.46654 -0.48102 92 ft 17 kts 270°
2026-05-06 08:10 51.46653 -0.48288 92 ft 17 kts 270°
2026-05-06 08:11 51.46653 -0.48473 92 ft 17 kts 270°
2026-05-06 08:11 51.46652 -0.48646 92 ft 14 kts 270°
2026-05-06 08:11 51.46626 -0.48744 95 ft 6 kts 211°
2026-05-06 08:11 51.46613 -0.48754 95 ft 0 kts 204°
2026-05-06 08:12 51.46612 -0.48755 95 ft 1 kts 204°
2026-05-06 08:13 51.46589 -0.48771 92 ft 6 kts 204°
2026-05-06 08:13 51.46529 -0.48782 95 ft 11 kts 172°
2026-05-06 08:13 51.46483 -0.48717 96 ft 8 kts 111°
2026-05-06 08:13 51.46480 -0.48683 95 ft 0 kts 90°
2026-05-06 08:14 51.46480 -0.48658 94 ft 8 kts 90°
2026-05-06 08:14 51.46479 -0.48407 92 ft 47 kts 90°
2026-05-06 08:14 51.46481 -0.47450 91 ft 123 kts 90°
2026-05-06 08:14 51.46487 -0.45717 111 ft 184 kts 89°
2026-05-06 08:15 51.46462 -0.43727 1073 ft 169 kts 93°
2026-05-06 08:15 51.46362 -0.41823 1610 ft 184 kts 98°
2026-05-06 08:15 51.45659 -0.39941 1695 ft 219 kts 144°
2026-05-06 08:15 51.44131 -0.39304 1946 ft 242 kts 187°
2026-05-06 08:16 51.42547 -0.40103 2731 ft 239 kts 207°
2026-05-06 08:16 51.41158 -0.41639 3308 ft 251 kts 219°
2026-05-06 08:16 51.39772 -0.43480 3886 ft 262 kts 220°
2026-05-06 08:16 51.38378 -0.45376 4862 ft 263 kts 221°
2026-05-06 08:17 51.36975 -0.47291 5706 ft 269 kts 220°
2026-05-06 08:17 51.35514 -0.49287 5997 ft 281 kts 221°
2026-05-06 08:17 51.34040 -0.51299 5986 ft 275 kts 221°
2026-05-06 08:17 51.32596 -0.53268 5989 ft 272 kts 221°
2026-05-06 08:18 51.31156 -0.55232 5993 ft 272 kts 220°
2026-05-06 08:18 51.29719 -0.57191 5991 ft 272 kts 221°
2026-05-06 08:18 51.28280 -0.59150 5991 ft 272 kts 221°
2026-05-06 08:18 51.26844 -0.61105 5991 ft 271 kts 221°
2026-05-06 08:19 51.25406 -0.63060 5990 ft 272 kts 221°
2026-05-06 08:19 51.23977 -0.65026 5989 ft 271 kts 224°
2026-05-06 08:19 51.22906 -0.67467 5999 ft 271 kts 248°
2026-05-06 08:19 51.22539 -0.70414 6386 ft 272 kts 273°
2026-05-06 08:20 51.22960 -0.73320 7357 ft 272 kts 294°
2026-05-06 08:20 51.24018 -0.75783 8156 ft 276 kts 313°
2026-05-06 08:20 51.25436 -0.77882 8972 ft 280 kts 319°
2026-05-06 08:20 51.26942 -0.79886 9755 ft 284 kts 320°
2026-05-06 08:21 51.28490 -0.81899 10337 ft 296 kts 320°
2026-05-06 08:21 51.30106 -0.84158 10461 ft 323 kts 313°
2026-05-06 08:21 51.31626 -0.86990 10546 ft 349 kts 308°
2026-05-06 08:21 51.33190 -0.90144 10614 ft 374 kts 309°
2026-05-06 08:22 51.34920 -0.93316 11245 ft 379 kts 312°
2026-05-06 08:22 51.36735 -0.96404 11917 ft 383 kts 313°
2026-05-06 08:22 51.38544 -0.99565 12556 ft 387 kts 311°
2026-05-06 08:22 51.40335 -1.02808 13186 ft 391 kts 311°
2026-05-06 08:23 51.42146 -1.06078 13793 ft 394 kts 311°
2026-05-06 08:23 51.43992 -1.09359 14398 ft 398 kts 312°
2026-05-06 08:23 51.45850 -1.12666 14980 ft 401 kts 311°
2026-05-06 08:23 51.47719 -1.16019 15533 ft 405 kts 311°
2026-05-06 08:24 51.49603 -1.19409 16086 ft 408 kts 311°
2026-05-06 08:24 51.51502 -1.22821 16601 ft 412 kts 311°
2026-05-06 08:24 51.53417 -1.26262 17135 ft 415 kts 311°
2026-05-06 08:24 51.55347 -1.29739 17628 ft 418 kts 311°
2026-05-06 08:25 51.57288 -1.33242 18128 ft 421 kts 311°
2026-05-06 08:25 51.59244 -1.36776 18599 ft 424 kts 311°
2026-05-06 08:25 51.61084 -1.40493 19034 ft 427 kts 301°
2026-05-06 08:25 51.62519 -1.44689 19476 ft 429 kts 298°
2026-05-06 08:26 51.63919 -1.48953 19914 ft 432 kts 297°
2026-05-06 08:26 51.65328 -1.53238 20331 ft 435 kts 298°
2026-05-06 08:26 51.66768 -1.57542 20728 ft 438 kts 298°
2026-05-06 08:26 51.68214 -1.61866 21125 ft 440 kts 298°
2026-05-06 08:27 51.69634 -1.66250 21487 ft 442 kts 294°
2026-05-06 08:27 51.70571 -1.70978 21851 ft 445 kts 281°
2026-05-06 08:27 51.70981 -1.75926 22183 ft 447 kts 277°
2026-05-06 08:27 51.71620 -1.80836 22514 ft 449 kts 288°
2026-05-06 08:28 51.72754 -1.85538 22838 ft 452 kts 293°
2026-05-06 08:28 51.74058 -1.90169 23159 ft 454 kts 295°
2026-05-06 08:28 51.75313 -1.94851 23466 ft 456 kts 291°
2026-05-06 08:28 51.76424 -1.99664 23770 ft 458 kts 290°
2026-05-06 08:29 51.77540 -2.04499 24052 ft 461 kts 291°
2026-05-06 08:29 51.78737 -2.09307 24342 ft 463 kts 292°
2026-05-06 08:29 51.79952 -2.14134 24617 ft 465 kts 291°
2026-05-06 08:29 51.81128 -2.19005 24905 ft 466 kts 291°
2026-05-06 08:30 51.82292 -2.23909 25184 ft 468 kts 291°
2026-05-06 08:30 51.83479 -2.28815 25458 ft 469 kts 291°
2026-05-06 08:30 51.84677 -2.33734 25713 ft 471 kts 291°
2026-05-06 08:30 51.85869 -2.38678 25968 ft 473 kts 291°
2026-05-06 08:31 51.87057 -2.43655 26217 ft 475 kts 291°
2026-05-06 08:31 51.88246 -2.48627 26657 ft 472 kts 291°
2026-05-06 08:31 51.89429 -2.53565 27153 ft 469 kts 291°
2026-05-06 08:31 51.90602 -2.58479 27654 ft 466 kts 291°
2026-05-06 08:32 51.91763 -2.63365 28129 ft 464 kts 291°
2026-05-06 08:32 51.92917 -2.68228 28613 ft 462 kts 291°
2026-05-06 08:32 51.94066 -2.73079 29095 ft 460 kts 291°
2026-05-06 08:32 51.95207 -2.77905 29564 ft 458 kts 291°
2026-05-06 08:33 51.97529 -2.87770 29584 ft 478 kts 291°
2026-05-06 08:33 51.99935 -2.98033 29607 ft 495 kts 290°
2026-05-06 08:34 52.03641 -3.13940 30110 ft 506 kts 290°
2026-05-06 08:34 52.04881 -3.19287 30481 ft 505 kts 290°
2026-05-06 08:35 52.06114 -3.24623 30869 ft 503 kts 290°
2026-05-06 08:35 52.07342 -3.29947 31212 ft 504 kts 290°
2026-05-06 08:35 52.08566 -3.35269 31614 ft 502 kts 290°
2026-05-06 08:35 52.09789 -3.40596 31931 ft 503 kts 290°
2026-05-06 08:36 52.11008 -3.45921 32320 ft 502 kts 290°
2026-05-06 08:36 52.12224 -3.51245 32700 ft 501 kts 290°
2026-05-06 08:36 52.13432 -3.56551 33146 ft 499 kts 290°
2026-05-06 08:36 52.14635 -3.61845 33555 ft 498 kts 290°
2026-05-06 08:37 52.15834 -3.67135 33870 ft 499 kts 290°
2026-05-06 08:37 52.17030 -3.72425 34245 ft 498 kts 290°
2026-05-06 08:37 52.18224 -3.77719 34599 ft 497 kts 290°
2026-05-06 08:37 52.19412 -3.83003 34965 ft 496 kts 290°
2026-05-06 08:38 52.20597 -3.88285 35315 ft 496 kts 290°
2026-05-06 08:38 52.21775 -3.93551 35704 ft 494 kts 290°
2026-05-06 08:38 52.22949 -3.98810 36008 ft 494 kts 290°
2026-05-06 08:39 52.25307 -4.09411 35985 ft 496 kts 290°
2026-05-06 08:39 52.27640 -4.19956 35990 ft 492 kts 290°
2026-05-06 08:40 52.29949 -4.30447 35993 ft 490 kts 289°
2026-05-06 08:40 52.32247 -4.40938 35996 ft 490 kts 289°
2026-05-06 08:41 52.34535 -4.51440 35992 ft 490 kts 289°
2026-05-06 08:41 52.36815 -4.61957 35993 ft 491 kts 289°
2026-05-06 08:42 52.39087 -4.72490 35991 ft 491 kts 289°
2026-05-06 08:42 52.41349 -4.83034 35995 ft 491 kts 289°
2026-05-06 08:43 52.43603 -4.93591 35997 ft 491 kts 289°
2026-05-06 08:43 52.45847 -5.04161 35995 ft 491 kts 289°
2026-05-06 08:44 52.48083 -5.14743 35995 ft 491 kts 289°
2026-05-06 08:44 52.50309 -5.25339 35997 ft 491 kts 289°
2026-05-06 08:45 52.52525 -5.35938 35998 ft 491 kts 289°
2026-05-06 08:45 52.54738 -5.46553 35995 ft 491 kts 290°
2026-05-06 08:45 52.56209 -5.51598 36023 ft 490 kts 302°
2026-05-06 08:46 52.58149 -5.56212 36008 ft 491 kts 305°
2026-05-06 08:46 52.61448 -5.63806 36010 ft 491 kts 305°
2026-05-06 08:47 52.65414 -5.72956 36011 ft 491 kts 305°
2026-05-06 08:47 52.69366 -5.82127 36011 ft 491 kts 305°
2026-05-06 08:48 52.73314 -5.91306 36010 ft 491 kts 305°
2026-05-06 08:48 52.77252 -6.00506 36010 ft 490 kts 305°
2026-05-06 08:49 52.81182 -6.09715 36011 ft 490 kts 305°
2026-05-06 08:49 52.85107 -6.18947 36010 ft 491 kts 305°
2026-05-06 08:50 52.89054 -6.28264 36010 ft 491 kts 305°
2026-05-06 08:50 52.92973 -6.37550 36008 ft 493 kts 304°
2026-05-06 08:51 52.96880 -6.46840 36011 ft 496 kts 304°
2026-05-06 08:51 53.00836 -6.56283 36008 ft 492 kts 304°
2026-05-06 08:52 53.04708 -6.65557 36005 ft 491 kts 304°
2026-05-06 08:52 53.08589 -6.74891 36006 ft 491 kts 304°
2026-05-06 08:53 53.12464 -6.84242 36006 ft 490 kts 304°
2026-05-06 08:53 53.16325 -6.93595 36008 ft 490 kts 304°
2026-05-06 08:54 53.20178 -7.02961 36008 ft 490 kts 304°
2026-05-06 08:54 53.24024 -7.12346 36007 ft 490 kts 304°
2026-05-06 08:55 53.27866 -7.21756 36007 ft 490 kts 304°
2026-05-06 08:55 53.31698 -7.31179 36007 ft 490 kts 304°
2026-05-06 08:56 53.35527 -7.40628 36008 ft 491 kts 304°
2026-05-06 08:56 53.39350 -7.50097 36009 ft 491 kts 304°
2026-05-06 08:57 53.43166 -7.59585 36010 ft 491 kts 304°
2026-05-06 08:57 53.46974 -7.69088 36011 ft 491 kts 303°
2026-05-06 08:58 53.50774 -7.78607 36011 ft 491 kts 303°
2026-05-06 08:58 53.54566 -7.88143 36011 ft 490 kts 303°
2026-05-06 08:59 53.58346 -7.97685 36011 ft 490 kts 303°
2026-05-06 08:59 53.62117 -8.07239 36010 ft 490 kts 303°
2026-05-06 09:00 53.65879 -8.16808 36010 ft 490 kts 303°
2026-05-06 09:00 53.69633 -8.26392 36010 ft 490 kts 303°
2026-05-06 09:01 53.73379 -8.35994 36008 ft 489 kts 303°
2026-05-06 09:01 53.77115 -8.45606 36008 ft 489 kts 303°
2026-05-06 09:02 53.80844 -8.55237 36008 ft 489 kts 303°
2026-05-06 09:02 53.84565 -8.64884 36011 ft 489 kts 303°
2026-05-06 09:03 53.88275 -8.74540 36008 ft 489 kts 303°
2026-05-06 09:03 53.91977 -8.84213 36010 ft 490 kts 303°
2026-05-06 09:04 53.95684 -8.93936 36011 ft 491 kts 303°
2026-05-06 09:04 53.99358 -9.03611 36012 ft 491 kts 302°
2026-05-06 09:05 54.03049 -9.13368 36011 ft 490 kts 302°
2026-05-06 09:05 54.06726 -9.23128 36011 ft 489 kts 302°
2026-05-06 09:06 54.10388 -9.32885 36009 ft 488 kts 302°
2026-05-06 09:06 54.14044 -9.42661 36009 ft 490 kts 302°
2026-05-06 09:07 54.17726 -9.52549 36014 ft 491 kts 302°
2026-05-06 09:07 54.21388 -9.62422 36012 ft 493 kts 302°
2026-05-06 09:08 54.25039 -9.72305 36010 ft 491 kts 302°
2026-05-06 09:08 54.28668 -9.82168 36008 ft 489 kts 302°
2026-05-06 09:09 54.32285 -9.92035 36006 ft 489 kts 302°
2026-05-06 09:09 54.35890 -10.01912 36008 ft 489 kts 302°
2026-05-06 09:10 54.39489 -10.11810 36006 ft 489 kts 302°
2026-05-06 09:10 54.43079 -10.21724 36006 ft 489 kts 302°
2026-05-06 09:11 54.46664 -10.31663 36009 ft 489 kts 301°
2026-05-06 09:11 54.50240 -10.41617 36005 ft 489 kts 301°
2026-05-06 09:12 54.53808 -10.51591 36008 ft 489 kts 301°
2026-05-06 09:12 54.57370 -10.61586 36008 ft 489 kts 301°
2026-05-06 09:13 54.60898 -10.71527 36010 ft 489 kts 301°
2026-05-06 09:13 54.64444 -10.81559 36009 ft 489 kts 301°
2026-05-06 09:14 54.68005 -10.91676 36010 ft 490 kts 301°
2026-05-06 09:14 54.71510 -11.01673 36011 ft 490 kts 301°
2026-05-06 09:15 54.75033 -11.11763 36011 ft 490 kts 301°
2026-05-06 09:15 54.78546 -11.21867 36011 ft 490 kts 301°
2026-05-06 09:16 54.82051 -11.31989 36008 ft 490 kts 301°
2026-05-06 09:16 54.85549 -11.42131 36011 ft 490 kts 301°
2026-05-06 09:17 54.89036 -11.52286 36010 ft 490 kts 301°
2026-05-06 09:17 54.92516 -11.62463 36012 ft 490 kts 300°
2026-05-06 09:18 54.96012 -11.72728 36008 ft 490 kts 300°
2026-05-06 09:18 54.99474 -11.82938 36008 ft 490 kts 300°
2026-05-06 09:19 55.02929 -11.93169 36008 ft 490 kts 300°
2026-05-06 09:19 55.06377 -12.03421 36010 ft 490 kts 300°
2026-05-06 09:20 55.09815 -12.13689 36011 ft 490 kts 300°
2026-05-06 09:20 55.13244 -12.23970 36011 ft 490 kts 300°
2026-05-06 09:21 55.16664 -12.34273 36011 ft 490 kts 300°
2026-05-06 09:21 55.20053 -12.44521 36011 ft 490 kts 300°
2026-05-06 09:22 55.23458 -12.54863 36010 ft 490 kts 300°
2026-05-06 09:22 55.26852 -12.65218 36009 ft 490 kts 300°
2026-05-06 09:23 55.30239 -12.75593 36011 ft 490 kts 300°
2026-05-06 09:23 55.33615 -12.85981 36011 ft 490 kts 299°
2026-05-06 09:24 55.36984 -12.96393 36009 ft 490 kts 299°
2026-05-06 09:24 55.40343 -13.06816 36011 ft 490 kts 299°
2026-05-06 09:25 55.43694 -13.17262 36011 ft 490 kts 299°
2026-05-06 09:25 55.47036 -13.27725 36014 ft 490 kts 299°
2026-05-06 09:26 55.50370 -13.38209 36010 ft 490 kts 299°
2026-05-06 09:26 55.53693 -13.48705 36012 ft 490 kts 299°
2026-05-06 09:27 55.57009 -13.59222 36011 ft 490 kts 299°
2026-05-06 09:27 55.60313 -13.69751 36010 ft 490 kts 299°
2026-05-06 09:28 55.63056 -13.78526 36012 ft 490 kts 298°
2026-05-06 09:28 55.66346 -13.89092 36011 ft 490 kts 298°
2026-05-06 09:29 55.69626 -13.99677 36009 ft 490 kts 298°
2026-05-06 09:29 55.72897 -14.10275 36010 ft 490 kts 298°
2026-05-06 09:30 55.76159 -14.20896 36009 ft 490 kts 298°
2026-05-06 09:30 55.79411 -14.31529 36010 ft 490 kts 298°
2026-05-06 09:31 55.82656 -14.42189 36010 ft 490 kts 298°
2026-05-06 09:31 55.85891 -14.52863 36011 ft 490 kts 298°
2026-05-06 09:32 55.89116 -14.63551 36011 ft 490 kts 298°
2026-05-06 09:32 55.92333 -14.74265 36011 ft 490 kts 298°
2026-05-06 09:33 55.95538 -14.84984 36012 ft 490 kts 298°
2026-05-06 09:33 55.98736 -14.95733 36011 ft 490 kts 297°
2026-05-06 09:33 56.00080 -15.01300 36024 ft 489 kts 286°
2026-05-06 09:34 56.00880 -15.07192 36009 ft 488 kts 282°
2026-05-06 09:34 56.02294 -15.18982 36008 ft 488 kts 282°
2026-05-06 09:35 56.03720 -15.30907 36008 ft 487 kts 282°
2026-05-06 09:35 56.05115 -15.42674 36010 ft 486 kts 282°
2026-05-06 09:36 56.06506 -15.54535 36011 ft 488 kts 282°
2026-05-06 09:36 56.07892 -15.66444 36010 ft 489 kts 282°
2026-05-06 09:37 56.09268 -15.78384 36010 ft 490 kts 281°
2026-05-06 09:37 56.10636 -15.90349 36009 ft 490 kts 281°
2026-05-06 09:38 56.11990 -16.02309 36009 ft 489 kts 281°
2026-05-06 09:38 56.13328 -16.14243 36006 ft 488 kts 281°
2026-05-06 09:39 56.14652 -16.26153 36007 ft 487 kts 281°
2026-05-06 09:39 56.15964 -16.38069 36004 ft 487 kts 281°
2026-05-06 09:40 56.17267 -16.50021 36004 ft 488 kts 281°
2026-05-06 09:40 56.19204 -16.67997 36007 ft 490 kts 281°
2026-05-06 09:41 56.20483 -16.80015 36012 ft 490 kts 281°
2026-05-06 09:41 56.21750 -16.92034 36011 ft 490 kts 281°
2026-05-06 09:42 56.23005 -17.04061 36009 ft 489 kts 280°
2026-05-06 09:42 56.24247 -17.16085 36010 ft 489 kts 280°
2026-05-06 09:43 56.25478 -17.28110 36010 ft 489 kts 280°
2026-05-06 09:43 56.26695 -17.40129 36010 ft 489 kts 280°
2026-05-06 09:44 56.27900 -17.52159 36009 ft 488 kts 280°
2026-05-06 09:44 56.29094 -17.64194 36008 ft 488 kts 280°
2026-05-06 09:45 56.30276 -17.76231 36008 ft 488 kts 280°
2026-05-06 09:45 56.31446 -17.88276 36006 ft 488 kts 279°
2026-05-06 09:46 56.32603 -18.00316 36009 ft 488 kts 279°
2026-05-06 09:46 56.33749 -18.12367 36006 ft 488 kts 279°
2026-05-06 09:47 56.34883 -18.24425 36007 ft 488 kts 279°
2026-05-06 09:47 56.36005 -18.36485 36007 ft 488 kts 279°
2026-05-06 09:48 56.37114 -18.48549 36006 ft 487 kts 279°
2026-05-06 09:48 56.38212 -18.60618 36006 ft 487 kts 279°
2026-05-06 09:49 56.39298 -18.72683 36010 ft 487 kts 279°
2026-05-06 09:49 56.40372 -18.84765 36005 ft 487 kts 279°
2026-05-06 09:50 56.41435 -18.96852 36007 ft 489 kts 279°
2026-05-06 09:50 56.41964 -19.02929 36259 ft 490 kts 279°
2026-05-06 09:50 56.42491 -19.09009 36574 ft 490 kts 279°
2026-05-06 09:51 56.43015 -19.15097 36861 ft 490 kts 278°
2026-05-06 09:51 56.43536 -19.21183 37148 ft 490 kts 278°
2026-05-06 09:51 56.44054 -19.27265 37425 ft 490 kts 278°
2026-05-06 09:51 56.44569 -19.33362 37702 ft 490 kts 278°
2026-05-06 09:52 56.45081 -19.39447 37967 ft 490 kts 278°
2026-05-06 09:52 56.45593 -19.45577 37997 ft 495 kts 278°
2026-05-06 09:52 56.46610 -19.57862 37997 ft 491 kts 278°
2026-05-06 09:53 56.47606 -19.70047 37994 ft 489 kts 278°
2026-05-06 09:53 56.48589 -19.82221 37995 ft 489 kts 278°
2026-05-06 09:54 56.49559 -19.94394 38351 ft 487 kts 278°
2026-05-06 09:54 56.50076 -20.00446 38638 ft 487 kts 283°
2026-05-06 09:54 56.50903 -20.06386 38860 ft 487 kts 284°
2026-05-06 09:55 56.51761 -20.12318 39118 ft 487 kts 284°
2026-05-06 09:55 56.52614 -20.18259 39349 ft 488 kts 284°
2026-05-06 09:55 56.53452 -20.24212 39593 ft 488 kts 284°
2026-05-06 09:55 56.54286 -20.30167 39840 ft 488 kts 284°
2026-05-06 09:56 56.55124 -20.36121 40005 ft 489 kts 284°
2026-05-06 09:56 56.55969 -20.42129 39995 ft 493 kts 284°
2026-05-06 09:56 56.57636 -20.54126 39995 ft 488 kts 284°
2026-05-06 09:57 56.59281 -20.66039 39996 ft 486 kts 284°
2026-05-06 09:57 56.60921 -20.78009 39995 ft 485 kts 284°
2026-05-06 09:58 56.62539 -20.89913 39992 ft 486 kts 284°
2026-05-06 09:58 56.64137 -21.01764 39994 ft 486 kts 283°
2026-05-06 09:59 56.65734 -21.13707 39993 ft 487 kts 283°
2026-05-06 09:59 56.67321 -21.25669 39993 ft 487 kts 283°
2026-05-06 10:00 56.68897 -21.37642 39993 ft 487 kts 283°
2026-05-06 10:00 56.70464 -21.49639 39993 ft 487 kts 283°
2026-05-06 10:01 56.72017 -21.61637 39996 ft 487 kts 283°
2026-05-06 10:01 56.73560 -21.73649 39996 ft 487 kts 283°
2026-05-06 10:02 56.75091 -21.85669 39996 ft 487 kts 283°
2026-05-06 10:02 56.76610 -21.97695 39997 ft 487 kts 283°
2026-05-06 10:03 56.78116 -22.09727 39997 ft 487 kts 283°
2026-05-06 10:03 56.79610 -22.21759 39996 ft 486 kts 282°
2026-05-06 10:04 56.81092 -22.33797 39996 ft 486 kts 282°
2026-05-06 10:04 56.82563 -22.45846 39998 ft 486 kts 282°
2026-05-06 10:05 56.84020 -22.57895 39996 ft 486 kts 282°
2026-05-06 10:05 56.85466 -22.69948 39992 ft 485 kts 282°
2026-05-06 10:06 56.86899 -22.82004 39993 ft 485 kts 282°
2026-05-06 10:06 56.88320 -22.94060 39995 ft 485 kts 282°
2026-05-06 10:07 56.89728 -23.06117 39991 ft 485 kts 282°
2026-05-06 10:07 56.91125 -23.18194 39991 ft 486 kts 282°
2026-05-06 10:08 56.92517 -23.30328 39997 ft 488 kts 282°
2026-05-06 10:08 56.93900 -23.42501 40003 ft 489 kts 282°
2026-05-06 10:09 56.95043 -23.52651 40006 ft 489 kts 281°
2026-05-06 10:09 56.96404 -23.64842 40007 ft 488 kts 281°
2026-05-06 10:10 56.97752 -23.77025 40004 ft 487 kts 281°
2026-05-06 10:10 56.99086 -23.89195 40003 ft 487 kts 281°
2026-05-06 10:11 57.00406 -24.01360 40003 ft 486 kts 281°
2026-05-06 10:11 57.01712 -24.13513 40002 ft 485 kts 281°
2026-05-06 10:12 57.03006 -24.25665 39996 ft 485 kts 281°
2026-05-06 10:12 57.04289 -24.37840 39998 ft 487 kts 281°
2026-05-06 10:13 57.05565 -24.50073 40003 ft 488 kts 281°
2026-05-06 10:13 57.06832 -24.62333 40007 ft 489 kts 281°
2026-05-06 10:14 57.08088 -24.74616 40010 ft 489 kts 280°
2026-05-06 10:14 57.09332 -24.86904 40011 ft 489 kts 280°
2026-05-06 10:15 57.10563 -24.99199 40010 ft 489 kts 280°
2026-05-06 10:15 57.11781 -25.11485 40010 ft 488 kts 280°
2026-05-06 10:16 57.12987 -25.23784 40009 ft 488 kts 280°
2026-05-06 10:16 57.14180 -25.36078 40008 ft 488 kts 280°
2026-05-06 10:17 57.15361 -25.48377 40008 ft 487 kts 280°
2026-05-06 10:17 57.16528 -25.60670 40006 ft 487 kts 279°
2026-05-06 10:18 57.17675 -25.72883 40007 ft 487 kts 279°
2026-05-06 10:18 57.18818 -25.85182 40006 ft 487 kts 279°
2026-05-06 10:19 57.19948 -25.97482 40004 ft 486 kts 279°
2026-05-06 10:19 57.21065 -26.09780 40004 ft 486 kts 279°
2026-05-06 10:20 57.22169 -26.22076 40003 ft 486 kts 279°
2026-05-06 10:20 57.23260 -26.34375 40001 ft 485 kts 279°
2026-05-06 10:21 57.24341 -26.46693 40004 ft 487 kts 279°
2026-05-06 10:21 57.25413 -26.59057 40008 ft 489 kts 279°
2026-05-06 10:22 57.26477 -26.71476 40009 ft 490 kts 279°
2026-05-06 10:22 57.27529 -26.83902 40009 ft 489 kts 278°
2026-05-06 10:23 57.28574 -26.96405 40010 ft 488 kts 278°
2026-05-06 10:23 57.29597 -27.08799 40007 ft 487 kts 278°
2026-05-06 10:24 57.30607 -27.21184 40005 ft 487 kts 278°
2026-05-06 10:24 57.31603 -27.33557 40003 ft 486 kts 278°
2026-05-06 10:25 57.32586 -27.45927 40001 ft 485 kts 278°
2026-05-06 10:25 57.33557 -27.58293 40000 ft 486 kts 278°
2026-05-06 10:26 57.34518 -27.70707 40004 ft 488 kts 278°
2026-05-06 10:26 57.35469 -27.83158 40009 ft 489 kts 278°
2026-05-06 10:27 57.36410 -27.95642 40006 ft 489 kts 278°
2026-05-06 10:27 57.37332 -28.08041 40009 ft 489 kts 278°
2026-05-06 10:28 57.38253 -28.20602 40009 ft 488 kts 277°
2026-05-06 10:28 57.39156 -28.33079 40010 ft 488 kts 277°
2026-05-06 10:29 57.40039 -28.45470 40008 ft 488 kts 277°
2026-05-06 10:29 57.40916 -28.57945 40007 ft 488 kts 277°
2026-05-06 10:30 57.41784 -28.70494 40007 ft 487 kts 277°
2026-05-06 10:30 57.42630 -28.82887 40005 ft 487 kts 277°
2026-05-06 10:31 57.43473 -28.95433 40005 ft 487 kts 277°
2026-05-06 10:31 57.44298 -29.07899 40004 ft 486 kts 277°
2026-05-06 10:32 57.45110 -29.20362 40003 ft 486 kts 277°
2026-05-06 10:32 57.45909 -29.32822 40002 ft 486 kts 277°
2026-05-06 10:33 57.46696 -29.45281 40001 ft 485 kts 276°
2026-05-06 10:33 57.47470 -29.57736 40000 ft 485 kts 276°
2026-05-06 10:34 57.48233 -29.70226 40004 ft 487 kts 276°
2026-05-06 10:34 57.48986 -29.82752 40009 ft 489 kts 276°
2026-05-06 10:35 57.49729 -29.95321 40008 ft 489 kts 276°
2026-05-06 10:35 57.51092 -30.07669 40004 ft 489 kts 284°
2026-05-06 10:36 57.52830 -30.19887 40010 ft 488 kts 284°
2026-05-06 10:36 57.54535 -30.32028 40010 ft 488 kts 284°
2026-05-06 10:37 57.56242 -30.44254 40012 ft 488 kts 284°
2026-05-06 10:37 57.57948 -30.56577 40011 ft 488 kts 284°
2026-05-06 10:38 57.59630 -30.68820 40011 ft 487 kts 284°
2026-05-06 10:38 57.61300 -30.81074 40012 ft 487 kts 284°
2026-05-06 10:39 57.62956 -30.93324 40011 ft 487 kts 284°
2026-05-06 10:39 57.64599 -31.05579 40010 ft 487 kts 284°
2026-05-06 10:40 57.66230 -31.17839 40009 ft 486 kts 284°
2026-05-06 10:40 57.67848 -31.30105 40009 ft 486 kts 284°
2026-05-06 10:41 57.69454 -31.42377 40007 ft 486 kts 283°
2026-05-06 10:41 57.71046 -31.54652 40006 ft 485 kts 283°
2026-05-06 10:42 57.72626 -31.66926 40006 ft 485 kts 283°
2026-05-06 10:42 57.74197 -31.79243 40009 ft 487 kts 283°
2026-05-06 10:43 57.75760 -31.91599 40009 ft 488 kts 283°
2026-05-06 10:44 57.78088 -32.10199 40011 ft 489 kts 283°
2026-05-06 10:44 57.79626 -32.22618 40011 ft 489 kts 283°
2026-05-06 10:45 57.81151 -32.35048 40011 ft 489 kts 283°
2026-05-06 10:45 57.82664 -32.47485 40012 ft 489 kts 283°
2026-05-06 10:46 57.84164 -32.59930 40011 ft 489 kts 282°
2026-05-06 10:46 57.85652 -32.72384 40011 ft 489 kts 282°
2026-05-06 10:47 57.87127 -32.84838 40011 ft 489 kts 282°
2026-05-06 10:47 57.88589 -32.97303 40011 ft 488 kts 282°
2026-05-06 10:48 57.90038 -33.09770 40010 ft 488 kts 282°
2026-05-06 10:48 57.91475 -33.22241 40010 ft 488 kts 282°
2026-05-06 10:49 57.92658 -33.32603 40008 ft 488 kts 282°
2026-05-06 10:49 57.94071 -33.45079 40007 ft 487 kts 282°
2026-05-06 10:50 57.95470 -33.57560 40006 ft 487 kts 282°
2026-05-06 10:50 57.96856 -33.70038 40006 ft 487 kts 282°
2026-05-06 10:51 57.98229 -33.82516 40005 ft 486 kts 282°
2026-05-06 10:51 57.99588 -33.94991 40004 ft 486 kts 281°
2026-05-06 10:52 58.00937 -34.07492 40005 ft 487 kts 281°
2026-05-06 10:52 58.02277 -34.20031 40008 ft 488 kts 281°
2026-05-06 10:53 58.03606 -34.32596 40011 ft 489 kts 281°
2026-05-06 10:53 58.04924 -34.45182 40012 ft 489 kts 281°
2026-05-06 10:54 58.06240 -34.57879 40010 ft 490 kts 281°
2026-05-06 10:54 58.07535 -34.70513 40009 ft 490 kts 281°
2026-05-06 10:55 58.08818 -34.83145 40010 ft 489 kts 281°
2026-05-06 10:55 58.10088 -34.95791 40011 ft 489 kts 281°
2026-05-06 10:56 58.11344 -35.08430 40011 ft 489 kts 280°
2026-05-06 10:56 58.12587 -35.21073 40010 ft 489 kts 280°
2026-05-06 10:57 58.13818 -35.33724 40009 ft 488 kts 280°
2026-05-06 10:57 58.15034 -35.46368 40009 ft 488 kts 280°
2026-05-06 10:58 58.16238 -35.59017 40008 ft 488 kts 280°
2026-05-06 10:58 58.17420 -35.71580 40007 ft 488 kts 280°
2026-05-06 10:59 58.18597 -35.84224 40006 ft 487 kts 280°
2026-05-06 10:59 58.19760 -35.96867 40004 ft 487 kts 279°
2026-05-06 11:00 58.20910 -36.09513 40003 ft 486 kts 279°
2026-05-06 11:00 58.22047 -36.22156 40001 ft 486 kts 279°
2026-05-06 11:01 58.23173 -36.34822 40004 ft 488 kts 279°
2026-05-06 11:01 58.24297 -36.47622 40007 ft 489 kts 279°
2026-05-06 11:02 58.25404 -36.60377 40012 ft 490 kts 279°
2026-05-06 11:02 58.26498 -36.73145 40010 ft 490 kts 279°
2026-05-06 11:03 58.27572 -36.85826 40011 ft 489 kts 279°
2026-05-06 11:03 58.28639 -36.98590 40010 ft 489 kts 279°
2026-05-06 11:04 58.29693 -37.11348 40009 ft 489 kts 279°
2026-05-06 11:04 58.30733 -37.24111 40009 ft 488 kts 278°
2026-05-06 11:05 58.31761 -37.36879 40008 ft 488 kts 278°
2026-05-06 11:05 58.32775 -37.49640 40006 ft 488 kts 278°
2026-05-06 11:06 58.33775 -37.62398 40005 ft 487 kts 278°
2026-05-06 11:06 58.34762 -37.75152 40003 ft 487 kts 278°
2026-05-06 11:07 58.35736 -37.87902 40002 ft 486 kts 278°
2026-05-06 11:07 58.36696 -38.00654 40000 ft 486 kts 278°
2026-05-06 11:08 58.37643 -38.13408 39999 ft 486 kts 278°
2026-05-06 11:08 58.38577 -38.26165 40001 ft 487 kts 278°
2026-05-06 11:09 58.39503 -38.38986 40005 ft 489 kts 278°
2026-05-06 11:09 58.40418 -38.51844 40008 ft 490 kts 277°
2026-05-06 11:10 58.41321 -38.64721 40009 ft 490 kts 277°
2026-05-06 11:10 58.42210 -38.77597 40012 ft 490 kts 277°
2026-05-06 11:11 58.43087 -38.90475 40011 ft 489 kts 277°
2026-05-06 11:11 58.43944 -39.03266 40009 ft 489 kts 277°
2026-05-06 11:12 58.44793 -39.16133 40008 ft 488 kts 277°
2026-05-06 11:12 58.45629 -39.29003 40007 ft 488 kts 277°
2026-05-06 11:13 58.46451 -39.41861 40006 ft 488 kts 277°
2026-05-06 11:13 58.47259 -39.54711 40004 ft 487 kts 277°
2026-05-06 11:14 58.48053 -39.67554 40002 ft 487 kts 276°
2026-05-06 11:14 58.48835 -39.80400 39999 ft 486 kts 276°
2026-05-06 11:15 58.49603 -39.93238 39999 ft 487 kts 276°
2026-05-06 11:15 58.50844 -40.05931 40005 ft 488 kts 285°
2026-05-06 11:16 58.52620 -40.18480 40011 ft 489 kts 285°
2026-05-06 11:16 58.54384 -40.31062 40010 ft 490 kts 285°
2026-05-06 11:17 58.56137 -40.43663 40009 ft 490 kts 285°
2026-05-06 11:17 58.57878 -40.56277 40011 ft 490 kts 284°
2026-05-06 11:18 58.59607 -40.68910 40010 ft 490 kts 284°
2026-05-06 11:18 58.61322 -40.81540 40011 ft 489 kts 284°
2026-05-06 11:19 58.63036 -40.94270 40011 ft 489 kts 284°
2026-05-06 11:19 58.64726 -41.06931 40012 ft 489 kts 284°
2026-05-06 11:20 58.66403 -41.19593 40012 ft 489 kts 284°
2026-05-06 11:20 58.68069 -41.32278 40011 ft 489 kts 284°
2026-05-06 11:21 58.69720 -41.44959 40011 ft 489 kts 284°
2026-05-06 11:21 58.71360 -41.57659 40011 ft 489 kts 284°
2026-05-06 11:22 58.72996 -41.70444 40010 ft 489 kts 283°
2026-05-06 11:22 58.74599 -41.83077 40010 ft 489 kts 283°
2026-05-06 11:23 58.76199 -41.95798 40009 ft 489 kts 283°
2026-05-06 11:23 58.77787 -42.08526 40009 ft 489 kts 283°
2026-05-06 11:24 58.79361 -42.21262 40009 ft 488 kts 283°
2026-05-06 11:24 58.80923 -42.34013 40008 ft 488 kts 283°
2026-05-06 11:25 58.82471 -42.46765 40007 ft 488 kts 283°
2026-05-06 11:25 58.84006 -42.59524 40007 ft 488 kts 283°
2026-05-06 11:26 58.85528 -42.72288 40005 ft 488 kts 283°
2026-05-06 11:26 58.87036 -42.85053 40005 ft 487 kts 283°
2026-05-06 11:27 58.88531 -42.97831 40004 ft 487 kts 282°
2026-05-06 11:27 58.90012 -43.10604 40003 ft 487 kts 282°
2026-05-06 11:28 58.91480 -43.23379 40002 ft 486 kts 282°
2026-05-06 11:28 58.92936 -43.36175 40003 ft 488 kts 282°
2026-05-06 11:29 58.94150 -43.46935 40004 ft 489 kts 282°
2026-05-06 11:29 58.95589 -43.59810 40009 ft 490 kts 282°
2026-05-06 11:30 58.97018 -43.72721 40007 ft 490 kts 282°
2026-05-06 11:30 58.98436 -43.85652 40011 ft 490 kts 282°
2026-05-06 11:31 58.99829 -43.98495 40011 ft 490 kts 282°
2026-05-06 11:31 59.01229 -44.11516 40011 ft 490 kts 282°
2026-05-06 11:32 59.02605 -44.24461 40011 ft 489 kts 281°
2026-05-06 11:32 59.03969 -44.37409 40009 ft 489 kts 281°
2026-05-06 11:33 59.05309 -44.50274 40009 ft 489 kts 281°
2026-05-06 11:33 59.06654 -44.63312 40009 ft 489 kts 281°
2026-05-06 11:34 59.07977 -44.76273 40008 ft 489 kts 281°
2026-05-06 11:34 59.09286 -44.89237 40006 ft 488 kts 281°
2026-05-06 11:35 59.10573 -45.02118 40005 ft 488 kts 281°
2026-05-06 11:35 59.11854 -45.15077 40005 ft 488 kts 281°
2026-05-06 11:36 59.13122 -45.28048 40003 ft 487 kts 281°
2026-05-06 11:36 59.14376 -45.41018 40002 ft 487 kts 281°
2026-05-06 11:37 59.15616 -45.53987 40001 ft 487 kts 280°
2026-05-06 11:37 59.16844 -45.66971 40000 ft 487 kts 280°
2026-05-06 11:38 59.18058 -45.79954 40000 ft 487 kts 280°
2026-05-06 11:38 59.19260 -45.92955 40001 ft 487 kts 280°
2026-05-06 11:39 59.20448 -46.05961 40000 ft 487 kts 280°
2026-05-06 11:39 59.21625 -46.18986 40001 ft 487 kts 280°
2026-05-06 11:40 59.22788 -46.32022 40002 ft 487 kts 279°
2026-05-06 11:40 59.23939 -46.45069 40002 ft 487 kts 279°
2026-05-06 11:41 59.25076 -46.58126 40003 ft 488 kts 279°
2026-05-06 11:41 59.26202 -46.71200 40003 ft 488 kts 279°
2026-05-06 11:42 59.27313 -46.84270 40003 ft 488 kts 279°
2026-05-06 11:42 59.28412 -46.97361 40003 ft 488 kts 279°
2026-05-06 11:43 59.29497 -47.10448 40003 ft 488 kts 279°
2026-05-06 11:43 59.30569 -47.23552 40003 ft 488 kts 279°
2026-05-06 11:44 59.32153 -47.43215 40004 ft 488 kts 279°
2026-05-06 11:44 59.33192 -47.56333 40004 ft 488 kts 278°
2026-05-06 11:45 59.34218 -47.69462 40003 ft 488 kts 278°
2026-05-06 11:45 59.35231 -47.82598 40004 ft 488 kts 278°
2026-05-06 11:46 59.36230 -47.95740 40004 ft 487 kts 278°
2026-05-06 11:46 59.37217 -48.08891 40004 ft 487 kts 278°
2026-05-06 11:47 59.38189 -48.22039 40004 ft 487 kts 278°
2026-05-06 11:47 59.39149 -48.35204 40003 ft 487 kts 278°
2026-05-06 11:48 59.40095 -48.48369 40003 ft 487 kts 278°
2026-05-06 11:48 59.41027 -48.61539 40003 ft 487 kts 278°
2026-05-06 11:49 59.41941 -48.74631 40003 ft 487 kts 277°
2026-05-06 11:49 59.42846 -48.87810 40003 ft 487 kts 277°
2026-05-06 11:50 59.43739 -49.00997 40002 ft 487 kts 277°
2026-05-06 11:50 59.44620 -49.14218 40005 ft 489 kts 277°
2026-05-06 11:51 59.45491 -49.27499 40010 ft 491 kts 277°
2026-05-06 11:51 59.46351 -49.40823 40012 ft 491 kts 277°
2026-05-06 11:52 59.47197 -49.54139 40010 ft 490 kts 277°
2026-05-06 11:52 59.48027 -49.67442 40009 ft 490 kts 277°
2026-05-06 11:53 59.48843 -49.80730 40006 ft 489 kts 277°
2026-05-06 11:53 59.49645 -49.94012 40004 ft 488 kts 276°
2026-05-06 11:54 59.49791 -50.00666 40031 ft 487 kts 265°
2026-05-06 11:54 59.49307 -50.07263 40029 ft 488 kts 259°
2026-05-06 11:54 59.48040 -50.20446 40010 ft 491 kts 259°
2026-05-06 11:55 59.46754 -50.33617 40009 ft 490 kts 259°
2026-05-06 11:55 59.45460 -50.46789 40009 ft 490 kts 259°
2026-05-06 11:56 59.44149 -50.59936 40009 ft 490 kts 259°
2026-05-06 11:56 59.42828 -50.73074 40010 ft 490 kts 259°
2026-05-06 11:57 59.41493 -50.86192 40011 ft 490 kts 258°
2026-05-06 11:57 59.40146 -50.99301 40010 ft 490 kts 258°
2026-05-06 11:58 59.38786 -51.12395 40011 ft 490 kts 258°
2026-05-06 11:58 59.37404 -51.25561 40010 ft 489 kts 258°
2026-05-06 11:59 59.36019 -51.38616 40009 ft 489 kts 258°
2026-05-06 11:59 59.34622 -51.51658 40007 ft 489 kts 258°
2026-05-06 12:00 59.33213 -51.64678 40006 ft 488 kts 258°
2026-05-06 12:00 59.31792 -51.77677 40005 ft 488 kts 258°
2026-05-06 12:01 59.30360 -51.90648 40004 ft 488 kts 258°
2026-05-06 12:01 59.28915 -52.03608 40003 ft 488 kts 257°
2026-05-06 12:02 59.27454 -52.16586 40005 ft 489 kts 257°
2026-05-06 12:02 59.25976 -52.29587 40009 ft 490 kts 257°
2026-05-06 12:03 59.24482 -52.42601 40009 ft 492 kts 257°
2026-05-06 12:03 59.22974 -52.55617 40012 ft 491 kts 257°
2026-05-06 12:04 59.21456 -52.68597 40010 ft 490 kts 257°
2026-05-06 12:04 59.19927 -52.81546 40008 ft 489 kts 257°
2026-05-06 12:05 59.18388 -52.94462 40006 ft 488 kts 257°
2026-05-06 12:05 59.16839 -53.07339 40003 ft 488 kts 257°
2026-05-06 12:06 59.15279 -53.20194 40000 ft 487 kts 257°
2026-05-06 12:06 59.13704 -53.33054 40001 ft 489 kts 256°
2026-05-06 12:07 59.12113 -53.45932 40004 ft 490 kts 256°
2026-05-06 12:07 59.10507 -53.58810 40006 ft 490 kts 256°
2026-05-06 12:08 59.08886 -53.71697 40009 ft 491 kts 256°
2026-05-06 12:08 59.07517 -53.82495 40011 ft 491 kts 256°
2026-05-06 12:09 59.05883 -53.95279 40009 ft 491 kts 256°
2026-05-06 12:09 59.04225 -54.08142 40010 ft 491 kts 256°
2026-05-06 12:10 59.02554 -54.20986 40010 ft 490 kts 256°
2026-05-06 12:10 59.00872 -54.33810 40010 ft 490 kts 256°
2026-05-06 12:11 58.99180 -54.46606 40009 ft 490 kts 256°
2026-05-06 12:11 58.97474 -54.59391 40007 ft 490 kts 255°
2026-05-06 12:12 58.95757 -54.72155 40006 ft 489 kts 255°
2026-05-06 12:12 58.94029 -54.84900 40005 ft 489 kts 255°
2026-05-06 12:13 58.92289 -54.97624 40005 ft 489 kts 255°
2026-05-06 12:13 58.90537 -55.10326 40004 ft 488 kts 255°
2026-05-06 12:14 58.88775 -55.23006 40002 ft 488 kts 255°
2026-05-06 12:14 58.87003 -55.35655 40000 ft 487 kts 255°
2026-05-06 12:15 58.85219 -55.48287 40001 ft 487 kts 255°
2026-05-06 12:15 58.83423 -55.60900 39997 ft 487 kts 255°
2026-05-06 12:16 58.81615 -55.73502 39998 ft 488 kts 255°
2026-05-06 12:16 58.79791 -55.86114 40002 ft 489 kts 254°
2026-05-06 12:17 58.77950 -55.98745 40004 ft 490 kts 254°
2026-05-06 12:17 58.76095 -56.11382 40007 ft 490 kts 254°
2026-05-06 12:18 58.74225 -56.24016 40010 ft 491 kts 254°
2026-05-06 12:18 58.72341 -56.36649 40012 ft 491 kts 254°
2026-05-06 12:19 58.70445 -56.49261 40011 ft 491 kts 254°
2026-05-06 12:19 58.68537 -56.61863 40011 ft 491 kts 253°
2026-05-06 12:20 58.66619 -56.74435 40010 ft 490 kts 253°
2026-05-06 12:20 58.64689 -56.86995 40010 ft 490 kts 253°
2026-05-06 12:21 58.62746 -56.99539 40009 ft 490 kts 253°
2026-05-06 12:21 58.60794 -57.12055 40009 ft 490 kts 253°
2026-05-06 12:22 58.58828 -57.24565 40008 ft 490 kts 253°
2026-05-06 12:22 58.56852 -57.37048 40007 ft 489 kts 253°
2026-05-06 12:23 58.54865 -57.49509 40006 ft 489 kts 253°
2026-05-06 12:23 58.52867 -57.61953 40006 ft 489 kts 253°
2026-05-06 12:24 58.50857 -57.74377 40005 ft 489 kts 253°
2026-05-06 12:24 58.48837 -57.86776 40005 ft 488 kts 252°
2026-05-06 12:25 58.46805 -57.99163 40004 ft 488 kts 252°
2026-05-06 12:25 58.44852 -58.11572 40003 ft 488 kts 254°
2026-05-06 12:26 58.42921 -58.23978 40002 ft 487 kts 253°
2026-05-06 12:26 58.40948 -58.36351 40003 ft 487 kts 253°
2026-05-06 12:27 58.38985 -58.48728 40002 ft 489 kts 253°
2026-05-06 12:27 58.36999 -58.61054 40007 ft 491 kts 253°
2026-05-06 12:28 58.34993 -58.73489 40007 ft 492 kts 253°
2026-05-06 12:28 58.32968 -58.85908 40009 ft 490 kts 253°
2026-05-06 12:29 58.30941 -58.98274 40006 ft 489 kts 252°
2026-05-06 12:29 58.28906 -59.10586 40003 ft 488 kts 252°
2026-05-06 12:30 58.26864 -59.22871 40002 ft 488 kts 252°
2026-05-06 12:30 58.24804 -59.35167 40002 ft 489 kts 252°
2026-05-06 12:31 58.22730 -59.47470 40004 ft 490 kts 252°
2026-05-06 12:31 58.20641 -59.59774 40006 ft 490 kts 252°
2026-05-06 12:32 58.18539 -59.72071 40008 ft 490 kts 252°
2026-05-06 12:32 58.16424 -59.84359 40009 ft 491 kts 252°
2026-05-06 12:33 58.14298 -59.96625 40010 ft 491 kts 252°
2026-05-06 12:33 58.12158 -60.08892 40011 ft 491 kts 252°
2026-05-06 12:34 58.10006 -60.21145 40011 ft 491 kts 251°
2026-05-06 12:34 58.07843 -60.33379 40012 ft 491 kts 251°